Regional Weather Roundup
Issued by NWS Green Bay, WI

Home | Current Version | Previous Version | Text Only | Print | Product List | Glossary On
Versions: 1 2 3 4 5 6 7 8 9 10 11 12 13 14 15 16 17 18 19 20 21 22 23 24 25 26 27 28 29 30 31 32 33 34 35 36 37 38 39 40 41 42 43 44 45 46 47 48 49 50
000
ASUS43 KGRB 050011
RWRGRB

NORTH-CENTRAL AND NORTHEAST WISCONSIN REGIONAL WEATHER ROUNDUP
NATIONAL WEATHER SERVICE GREEN BAY WI
700 PM CDT FRI SEP 04 2015

WIZ005-009-010>012-018-019-050100-
NORTH CENTRAL WISCONSIN

CITY           SKY/WX    TMP DP  RH WIND       PRES   REMARKS
IRONWOOD       FAIR      81  66  61 E6        29.97S
MANITOWISH WTR FAIR      76  67  73 CALM      30.04R
ARBOR VITAE    FAIR      77  66  68 CALM      30.04R
EAGLE RIVER    FAIR      76  62  61 SE3       30.04S
LAND O LAKES   FAIR      76  64  66 SE6       30.05F
RHINELANDER    FAIR      76  65  68 SE6       30.06R
PHILLIPS       FAIR      78  67  69 SE7       30.02S
ANTIGO         FAIR      73  66  80 SE8       30.06S
TOMAHAWK       FAIR      75  66  74 CALM      30.04S
MERRILL        FAIR      77  67  72 S5        30.05R
$$

WIZ013-073-050100-
NORTHEAST WISCONSIN

CITY           SKY/WX    TMP DP  RH WIND       PRES   REMARKS
IRON MOUNTAIN  FAIR      75  65  70 SE6       30.05R
MARINETTE      FAIR      70  63  78 E3        30.04S
OCONTO         FAIR      70  69  95 CALM      30.04S
$$

WIZ017-030-035>037-045-050100-
CENTRAL WISCONSIN

CITY           SKY/WX    TMP DP  RH WIND       PRES   REMARKS
MEDFORD        FAIR      74  68  81 SE5       30.03S
WAUSAU         FAIR      77  66  68 S8        30.03R
MOSINEE        PTCLDY    75  68  78 SE5       30.04S
MARSHFIELD     FAIR      77  64  64 E8        30.02S
WISC RAPIDS    FAIR      76  65  68 E9        30.04R
STEVENS POINT  FAIR      73  66  78 SE3       30.04R
WAUPACA        FAIR      76  69  81 S3        30.03S
SHAWANO        NOT AVBL
CLINTONVILLE   FAIR      73  64  73 E6        30.03S
WAUTOMA        FAIR      74  68  81 E5        30.04R
$$

WIZ038-039-048-051-050100-
FOX VALLEY

CITY           SKY/WX    TMP DP  RH WIND       PRES   REMARKS
NWS GREEN BAY  FAIR      73  67  81 E8        30.04R
APPLETON       MOCLDY    73  64  73 VRB3      30.02S
OSHKOSH        FAIR      72  66  81 CALM      30.04R
FOND DU LAC    FAIR      73  66  78 E5        30.04S
$$

WIZ022-050-052-050100-
EAST CENTRAL WISCONSIN

CITY           SKY/WX    TMP DP  RH WIND       PRES   REMARKS
EPHRAIM        MOCLDY    69  65  90 E5        30.05R
STURGEON BAY   FAIR      70  64  83 E5        30.07S
MANITOWOC      FAIR      65  63  93 MISG      30.05S
SHEBOYGAN      FAIR      69  65  86 E6        30.05R
$$

LMZ563-521-522-541>543-050100-
LAKESHORE

STATION/POSITION TIME  TEMP    WIND        PRES    VSBY  WAVE
                       AIR SEA DIR/SP/G                  HT/PER
                 (UTC) (F)     (DEG/KT/KT) (MB)    (MI)  (FT/S)
SHEBOYGAN LKSHOR 0000   61     360/  5/  6 1017.7R
KEWAUNEE LKSHORE 2300   65      30/  5/  7 1016.5R
ALGOMA MARINA    2314           60/  8/ 10   N/A
NORTHPORT PIER   2300   69      90/  4/  6 1016.9F
N MID LAKE BUOY  2350   69 67   30/  6/  6 1016.9F         1/ 3
S GREEN BAY BUOY 0000   68 67   40/  4/  6 1018.7R
SISTER BAY LKSHO 2311   73     110/  9/ 12   N/A
CHAMBERS ISLAND  2300   71      80/  7/  9 1017.3S
MENOMINEE LKSHOR 2300   68      20/  5/  8 1016.0F
$$


USA.gov is the U.S. government's official web portal to all federal, state and local government web resources and services.